Time,TemperatureF,DewpointF,PressureIn,WindDirection,WindDirectionDegrees,WindSpeedMPH,WindSpeedGustMPH,Humidity,HourlyPrecipIn,Conditions,Clouds,dailyrainin,SoftwareType,DateUTC
2013-04-29 00:00:00,50.8,34.7,29.88,SSW,205,2.0,5.0,54,0.00,,,0.00,Wunderground v.1.15,2013-04-29 04:00:00,
2013-04-29 00:10:00,50.5,34.5,29.88,SSW,193,3.0,4.0,54,0.00,,,0.00,Wunderground v.1.15,2013-04-29 04:10:00,
2013-04-29 00:15:00,50.4,34.8,29.88,South,189,3.0,4.0,55,0.00,,,0.00,Wunderground v.1.15,2013-04-29 04:15:00,
2013-04-29 00:20:00,50.4,34.8,29.88,SSW,209,2.0,2.0,55,0.00,,,0.00,Wunderground v.1.15,2013-04-29 04:20:00,
2013-04-29 00:30:00,50.3,34.7,29.88,WSW,239,2.0,4.0,55,0.00,,,0.00,Wunderground v.1.15,2013-04-29 04:30:00,
2013-04-29 00:35:00,50.1,34.5,29.88,South,173,2.0,4.0,55,0.00,,,0.00,Wunderground v.1.15,2013-04-29 04:35:00,
2013-04-29 00:40:00,50.0,34.9,29.88,SSW,211,2.0,3.0,56,0.00,,,0.00,Wunderground v.1.15,2013-04-29 04:40:00,
2013-04-29 00:50:00,49.7,34.6,29.88,South,182,3.0,3.0,56,0.00,,,0.00,Wunderground v.1.15,2013-04-29 04:50:00,
2013-04-29 01:05:00,49.3,34.7,29.89,SSE,165,3.0,3.0,57,0.00,,,0.00,Wunderground v.1.15,2013-04-29 05:05:00,
2013-04-29 01:15:00,49.1,34.9,29.89,SSW,207,3.0,3.0,58,0.00,,,0.00,Wunderground v.1.15,2013-04-29 05:15:00,
2013-04-29 01:25:00,48.4,34.7,29.88,SW,224,2.0,3.0,59,0.00,,,0.00,Wunderground v.1.15,2013-04-29 05:25:00,
2013-04-29 01:30:00,48.3,34.6,29.88,SW,221,2.0,4.0,59,0.00,,,0.00,Wunderground v.1.15,2013-04-29 05:30:00,
2013-04-29 01:40:00,48.3,34.6,29.88,SSW,198,1.0,2.0,59,0.00,,,0.00,Wunderground v.1.15,2013-04-29 05:40:00,
2013-04-29 01:45:00,48.2,34.5,29.88,SSW,202,0.0,0.0,59,0.00,,,0.00,Wunderground v.1.15,2013-04-29 05:45:00,
2013-04-29 01:50:00,48.1,34.4,29.88,SSW,202,0.0,1.0,59,0.00,,,0.00,Wunderground v.1.15,2013-04-29 05:50:00,
2013-04-29 01:55:00,48.1,34.4,29.88,SSW,202,1.0,1.0,59,0.00,,,0.00,Wunderground v.1.15,2013-04-29 05:55:00,
2013-04-29 02:00:00,47.8,34.6,29.88,WSW,238,2.0,3.0,60,0.00,,,0.00,Wunderground v.1.15,2013-04-29 06:00:00,
2013-04-29 02:15:00,47.2,34.8,29.88,WSW,238,2.0,2.0,62,0.00,,,0.00,Wunderground v.1.15,2013-04-29 06:15:00,
2013-04-29 02:20:00,47.2,34.4,29.88,SW,226,2.0,2.0,61,0.00,,,0.00,Wunderground v.1.15,2013-04-29 06:20:00,
2013-04-29 02:30:00,47.6,34.4,29.88,SSW,213,2.0,3.0,60,0.00,,,0.00,Wunderground v.1.15,2013-04-29 06:30:00,
2013-04-29 02:35:00,47.8,34.6,29.87,SSW,213,1.0,3.0,60,0.00,,,0.00,Wunderground v.1.15,2013-04-29 06:35:00,
2013-04-29 02:40:00,47.6,34.8,29.87,WSW,238,1.0,3.0,61,0.00,,,0.00,Wunderground v.1.15,2013-04-29 06:40:00,
2013-04-29 02:45:00,47.5,34.7,29.87,SW,235,2.0,2.0,61,0.00,,,0.00,Wunderground v.1.15,2013-04-29 06:45:00,
2013-04-29 02:55:00,47.2,34.4,29.87,SW,236,3.0,3.0,61,0.00,,,0.00,Wunderground v.1.15,2013-04-29 06:55:00,
2013-04-29 03:05:00,47.4,34.6,29.87,SW,229,3.0,3.0,61,0.00,,,0.00,Wunderground v.1.15,2013-04-29 07:05:00,
2013-04-29 03:15:00,47.2,34.4,29.87,SW,225,2.0,3.0,61,0.00,,,0.00,Wunderground v.1.15,2013-04-29 07:15:00,
2013-04-29 03:25:00,46.8,34.5,29.87,SW,230,1.0,1.0,62,0.00,,,0.00,Wunderground v.1.15,2013-04-29 07:25:00,
2013-04-29 03:30:00,46.9,34.6,29.87,SSW,206,2.0,2.0,62,0.00,,,0.00,Wunderground v.1.15,2013-04-29 07:30:00,
2013-04-29 03:45:00,46.9,34.6,29.87,SSW,196,2.0,2.0,62,0.00,,,0.00,Wunderground v.1.15,2013-04-29 07:45:00,
2013-04-29 03:55:00,46.9,34.6,29.87,SSW,205,2.0,2.0,62,0.00,,,0.00,Wunderground v.1.15,2013-04-29 07:55:00,
2013-04-29 04:05:00,46.9,34.6,29.87,SW,214,2.0,2.0,62,0.00,,,0.00,Wunderground v.1.15,2013-04-29 08:05:00,
2013-04-29 04:10:00,47.0,34.6,29.87,SSW,207,2.0,3.0,62,0.00,,,0.00,Wunderground v.1.15,2013-04-29 08:10:00,
2013-04-29 04:15:00,47.0,34.6,29.87,South,190,2.0,3.0,62,0.00,,,0.00,Wunderground v.1.15,2013-04-29 08:15:00,
2013-04-29 04:25:00,46.7,34.4,29.87,SSW,198,0.0,0.0,62,0.00,,,0.00,Wunderground v.1.15,2013-04-29 08:25:00,
2013-04-29 04:30:00,46.5,34.6,29.87,SSW,211,1.0,2.0,63,0.00,,,0.00,Wunderground v.1.15,2013-04-29 08:30:00,
2013-04-29 04:35:00,46.4,34.5,29.87,South,183,1.0,2.0,63,0.00,,,0.00,Wunderground v.1.15,2013-04-29 08:35:00,
2013-04-29 04:45:00,46.0,34.5,29.87,WSW,239,1.0,3.0,64,0.00,,,0.00,Wunderground v.1.15,2013-04-29 08:45:00,
2013-04-29 04:50:00,46.1,34.2,29.87,SSW,213,1.0,1.0,63,0.00,,,0.00,Wunderground v.1.15,2013-04-29 08:50:00,
2013-04-29 05:05:00,46.2,34.3,29.87,SSW,211,1.0,2.0,63,0.00,,,0.00,Wunderground v.1.15,2013-04-29 09:05:00,
2013-04-29 05:10:00,46.1,34.6,29.87,South,187,1.0,2.0,64,0.00,,,0.00,Wunderground v.1.15,2013-04-29 09:10:00,
2013-04-29 05:15:00,45.6,34.1,29.87,SSW,213,1.0,1.0,64,0.00,,,0.00,Wunderground v.1.15,2013-04-29 09:15:00,
2013-04-29 05:25:00,45.1,34.0,29.87,SSW,213,0.0,0.0,65,0.00,,,0.00,Wunderground v.1.15,2013-04-29 09:25:00,
2013-04-29 05:30:00,45.0,34.3,29.87,SSW,213,0.0,0.0,66,0.00,,,0.00,Wunderground v.1.15,2013-04-29 09:30:00,
2013-04-29 05:40:00,44.9,34.2,29.88,SSW,213,0.0,0.0,66,0.00,,,0.00,Wunderground v.1.15,2013-04-29 09:40:00,
2013-04-29 05:45:00,44.7,34.0,29.88,SSW,213,0.0,0.0,66,0.00,,,0.00,Wunderground v.1.15,2013-04-29 09:45:00,
2013-04-29 05:50:00,45.1,34.0,29.88,SSW,213,1.0,1.0,65,0.00,,,0.00,Wunderground v.1.15,2013-04-29 09:50:00,
2013-04-29 05:55:00,45.5,33.6,29.88,SSW,211,1.0,3.0,63,0.00,,,0.00,Wunderground v.1.15,2013-04-29 09:55:00,
2013-04-29 06:05:00,46.0,33.7,29.88,SW,215,2.0,2.0,62,0.00,,,0.00,Wunderground v.1.15,2013-04-29 10:05:00,
2013-04-29 06:10:00,46.0,33.7,29.88,SSW,196,2.0,2.0,62,0.00,,,0.00,Wunderground v.1.15,2013-04-29 10:10:00,
2013-04-29 06:25:00,46.2,33.9,29.88,SSW,207,3.0,3.0,62,0.00,,,0.00,Wunderground v.1.15,2013-04-29 10:25:00,
2013-04-29 06:30:00,46.2,33.9,29.89,SW,219,2.0,3.0,62,0.00,,,0.00,Wunderground v.1.15,2013-04-29 10:30:00,
2013-04-29 06:45:00,46.5,34.2,29.89,SW,219,2.0,2.0,62,0.00,,,0.00,Wunderground v.1.15,2013-04-29 10:45:00,
2013-04-29 06:50:00,46.8,34.9,29.89,SSW,205,2.0,2.0,63,0.00,,,0.00,Wunderground v.1.15,2013-04-29 10:50:00,
2013-04-29 07:00:00,47.3,34.1,29.89,SSW,200,3.0,4.0,60,0.00,,,0.00,Wunderground v.1.15,2013-04-29 11:00:00,
2013-04-29 07:10:00,47.9,36.3,29.89,South,184,4.0,4.0,64,0.00,,,0.00,Wunderground v.1.15,2013-04-29 11:10:00,
2013-04-29 07:15:00,48.5,35.2,29.89,South,180,4.0,4.0,60,0.00,,,0.00,Wunderground v.1.15,2013-04-29 11:15:00,
2013-04-29 07:20:00,49.1,35.4,29.89,South,185,4.0,4.0,59,0.00,,,0.00,Wunderground v.1.15,2013-04-29 11:20:00,
2013-04-29 07:25:00,49.6,36.3,29.90,South,175,3.0,4.0,60,0.00,,,0.00,Wunderground v.1.15,2013-04-29 11:25:00,
2013-04-29 07:35:00,51.0,35.8,29.90,SSE,156,2.0,3.0,56,0.00,,,0.00,Wunderground v.1.15,2013-04-29 11:35:00,
2013-04-29 07:40:00,51.0,35.8,29.90,South,179,2.0,2.0,56,0.00,,,0.00,Wunderground v.1.15,2013-04-29 11:40:00,
2013-04-29 07:45:00,50.9,35.7,29.90,South,179,3.0,5.0,56,0.00,,,0.00,Wunderground v.1.15,2013-04-29 11:45:00,
2013-04-29 07:55:00,50.8,35.7,29.90,SSW,194,2.0,3.0,56,0.00,,,0.00,Wunderground v.1.15,2013-04-29 11:55:00,
2013-04-29 08:00:00,50.8,35.2,29.90,East,92,2.0,2.0,55,0.00,,,0.00,Wunderground v.1.15,2013-04-29 12:00:00,
2013-04-29 08:15:00,50.6,33.6,29.90,South,182,4.0,5.0,52,0.00,,,0.00,Wunderground v.1.15,2013-04-29 12:15:00,
2013-04-29 08:20:00,50.4,33.4,29.90,SSW,194,4.0,5.0,52,0.00,,,0.00,Wunderground v.1.15,2013-04-29 12:20:00,
2013-04-29 08:35:00,51.0,35.8,29.90,SE,138,2.0,2.0,56,0.00,,,0.00,Wunderground v.1.15,2013-04-29 12:35:00,
2013-04-29 08:40:00,51.5,35.4,29.90,SSE,167,2.0,2.0,54,0.00,,,0.00,Wunderground v.1.15,2013-04-29 12:40:00,
2013-04-29 08:45:00,52.0,34.9,29.90,South,175,3.0,3.0,52,0.00,,,0.00,Wunderground v.1.15,2013-04-29 12:45:00,
2013-04-29 09:00:00,51.9,35.8,29.89,South,182,4.0,8.0,54,0.00,,,0.00,Wunderground v.1.15,2013-04-29 13:00:00,
2013-04-29 09:10:00,52.3,35.7,29.89,South,187,4.0,5.0,53,0.00,,,0.00,Wunderground v.1.15,2013-04-29 13:10:00,
2013-04-29 09:20:00,52.8,35.6,29.89,South,180,5.0,5.0,52,0.00,,,0.00,Wunderground v.1.15,2013-04-29 13:20:00,
2013-04-29 09:25:00,53.2,35.5,29.89,South,185,4.0,6.0,51,0.00,,,0.00,Wunderground v.1.15,2013-04-29 13:25:00,
2013-04-29 09:30:00,53.2,35.5,29.88,SSE,162,4.0,4.0,51,0.00,,,0.00,Wunderground v.1.15,2013-04-29 13:30:00,
2013-04-29 09:35:00,53.5,36.8,29.88,SSE,158,4.0,4.0,53,0.00,,,0.00,Wunderground v.1.15,2013-04-29 13:35:00,
2013-04-29 09:45:00,54.2,37.4,29.88,South,178,2.0,3.0,53,0.00,,,0.00,Wunderground v.1.15,2013-04-29 13:45:00,
2013-04-29 09:55:00,54.0,37.2,29.88,South,177,3.0,3.0,53,0.00,,,0.00,Wunderground v.1.15,2013-04-29 13:55:00,
2013-04-29 10:05:00,54.6,37.8,29.87,SE,128,2.0,2.0,53,0.00,,,0.00,Wunderground v.1.15,2013-04-29 14:05:00,
2013-04-29 10:25:00,55.9,37.5,29.87,ESE,119,2.0,3.0,50,0.00,,,0.00,Wunderground v.1.15,2013-04-29 14:25:00,
2013-04-29 10:30:00,56.5,38.1,29.87,South,181,2.0,3.0,50,0.00,,,0.00,Wunderground v.1.15,2013-04-29 14:30:00,
2013-04-29 10:50:00,57.8,38.8,29.87,South,184,3.0,7.0,49,0.00,,,0.00,Wunderground v.1.15,2013-04-29 14:50:00,
2013-04-29 11:00:00,59.6,37.6,29.86,SSE,153,3.0,3.0,44,0.00,,,0.00,Wunderground v.1.15,2013-04-29 15:00:00,
2013-04-29 11:05:00,60.0,39.7,29.86,ESE,122,3.0,5.0,47,0.00,,,0.00,Wunderground v.1.15,2013-04-29 15:05:00,
2013-04-29 11:15:00,60.2,38.2,29.86,ESE,123,4.0,7.0,44,0.00,,,0.00,Wunderground v.1.15,2013-04-29 15:15:00,
2013-04-29 11:20:00,60.9,39.4,29.86,South,186,4.0,6.0,45,0.00,,,0.00,Wunderground v.1.15,2013-04-29 15:20:00,
2013-04-29 11:35:00,62.2,36.9,29.85,ESE,119,5.0,8.0,39,0.00,,,0.00,Wunderground v.1.15,2013-04-29 15:35:00,
2013-04-29 11:41:00,62.2,38.2,29.84,SSE,155,5.0,8.0,41,0.00,,,0.00,Wunderground v.1.15,2013-04-29 15:41:00,
2013-04-29 11:50:00,63.8,39.0,29.84,SSE,155,5.0,7.0,40,0.00,,,0.00,Wunderground v.1.15,2013-04-29 15:50:00,
2013-04-29 11:55:00,64.1,40.5,29.84,SE,144,5.0,5.0,42,0.00,,,0.00,Wunderground v.1.15,2013-04-29 15:55:00,
2013-04-29 12:05:00,65.2,38.9,29.84,SE,130,5.0,5.0,38,0.00,,,0.00,Wunderground v.1.15,2013-04-29 16:05:00,
2013-04-29 12:15:00,66.3,39.2,29.84,South,186,5.0,7.0,37,0.00,,,0.00,Wunderground v.1.15,2013-04-29 16:15:00,
2013-04-29 12:30:00,66.5,38.7,29.83,South,173,6.0,8.0,36,0.00,,,0.00,Wunderground v.1.15,2013-04-29 16:30:00,
2013-04-29 12:35:00,66.4,39.3,29.83,SSE,153,7.0,8.0,37,0.00,,,0.00,Wunderground v.1.15,2013-04-29 16:35:00,
2013-04-29 12:40:00,66.1,37.6,29.83,SSW,209,7.0,7.0,35,0.00,,,0.00,Wunderground v.1.15,2013-04-29 16:40:00,
2013-04-29 12:50:00,65.1,38.8,29.83,South,182,8.0,11.0,38,0.00,,,0.00,Wunderground v.1.15,2013-04-29 16:50:00,
2013-04-29 12:55:00,66.1,36.9,29.82,SSW,211,7.0,11.0,34,0.00,,,0.00,Wunderground v.1.15,2013-04-29 16:55:00,
2013-04-29 13:15:00,65.0,36.7,29.83,SW,234,8.0,9.0,35,0.00,,,0.00,Wunderground v.1.15,2013-04-29 17:15:00,
2013-04-29 13:35:00,65.4,38.4,29.82,SSW,194,8.0,8.0,37,0.00,,,0.00,Wunderground v.1.15,2013-04-29 17:35:00,
2013-04-29 13:45:00,64.8,36.5,29.82,SW,232,8.0,11.0,35,0.00,,,0.00,Wunderground v.1.15,2013-04-29 17:45:00,
2013-04-29 13:55:00,65.0,36.7,29.82,SSW,205,8.0,8.0,35,0.00,,,0.00,Wunderground v.1.15,2013-04-29 17:55:00,
2013-04-29 14:00:00,65.4,35.5,29.82,SW,219,7.0,7.0,33,0.00,,,0.00,Wunderground v.1.15,2013-04-29 18:00:00,
2013-04-29 14:15:00,66.5,35.7,29.81,SSW,202,7.0,7.0,32,0.00,,,0.00,Wunderground v.1.15,2013-04-29 18:15:00,
2013-04-29 14:25:00,66.6,38.1,29.81,West,265,8.0,10.0,35,0.00,,,0.00,Wunderground v.1.15,2013-04-29 18:25:00,
2013-04-29 14:30:00,66.0,38.3,29.81,SSW,209,7.0,10.0,36,0.00,,,0.00,Wunderground v.1.15,2013-04-29 18:30:00,
2013-04-29 14:40:00,66.4,35.6,29.81,SSW,200,8.0,8.0,32,0.00,,,0.00,Wunderground v.1.15,2013-04-29 18:40:00,
2013-04-29 15:00:00,63.7,36.2,29.81,WSW,246,8.0,11.0,36,0.00,,,0.00,Wunderground v.1.15,2013-04-29 19:00:00,
2013-04-29 15:05:00,63.5,36.7,29.81,South,190,8.0,8.0,37,0.00,,,0.00,Wunderground v.1.15,2013-04-29 19:05:00,
2013-04-29 15:10:00,63.8,38.4,29.81,SSE,166,7.0,7.0,39,0.00,,,0.00,Wunderground v.1.15,2013-04-29 19:10:00,
2013-04-29 15:15:00,64.2,36.0,29.81,SW,218,6.0,12.0,35,0.00,,,0.00,Wunderground v.1.15,2013-04-29 19:15:00,
2013-04-29 15:20:00,64.3,37.5,29.81,SW,230,6.0,6.0,37,0.00,,,0.00,Wunderground v.1.15,2013-04-29 19:20:00,
2013-04-29 15:30:00,64.0,37.2,29.81,South,191,6.0,6.0,37,0.00,,,0.00,Wunderground v.1.15,2013-04-29 19:30:00,
2013-04-29 15:35:00,64.1,36.6,29.81,SSW,210,5.0,6.0,36,0.00,,,0.00,Wunderground v.1.15,2013-04-29 19:35:00,
2013-04-29 15:40:00,64.0,36.5,29.81,SSW,205,5.0,5.0,36,0.00,,,0.00,Wunderground v.1.15,2013-04-29 19:40:00,
2013-04-29 15:45:00,63.8,36.3,29.80,SSW,209,6.0,7.0,36,0.00,,,0.00,Wunderground v.1.15,2013-04-29 19:45:00,
2013-04-29 15:55:00,63.5,36.7,29.80,SSW,197,6.0,7.0,37,0.00,,,0.00,Wunderground v.1.15,2013-04-29 19:55:00,
2013-04-29 16:00:00,63.3,37.2,29.80,SSW,192,5.0,6.0,38,0.00,,,0.00,Wunderground v.1.15,2013-04-29 20:00:00,
2013-04-29 16:05:00,63.3,37.9,29.80,WSW,243,5.0,6.0,39,0.00,,,0.00,Wunderground v.1.15,2013-04-29 20:05:00,
2013-04-29 16:20:00,63.1,37.7,29.80,SSW,213,5.0,8.0,39,0.00,,,0.00,Wunderground v.1.15,2013-04-29 20:20:00,
2013-04-29 16:25:00,63.1,39.0,29.80,WSW,247,5.0,8.0,41,0.00,,,0.00,Wunderground v.1.15,2013-04-29 20:25:00,
2013-04-29 16:35:00,63.1,37.7,29.80,WSW,248,5.0,9.0,39,0.00,,,0.00,Wunderground v.1.15,2013-04-29 20:35:00,
2013-04-29 16:40:00,63.0,39.5,29.80,South,188,5.0,9.0,42,0.00,,,0.00,Wunderground v.1.15,2013-04-29 20:40:00,
2013-04-29 16:55:00,62.9,38.2,29.81,South,178,4.0,6.0,40,0.00,,,0.00,Wunderground v.1.15,2013-04-29 20:55:00,
2013-04-29 17:05:00,62.7,38.0,29.81,SSW,203,5.0,7.0,40,0.00,,,0.00,Wunderground v.1.15,2013-04-29 21:05:00,
2013-04-29 17:15:00,62.7,39.3,29.81,SSW,213,5.0,5.0,42,0.00,,,0.00,Wunderground v.1.15,2013-04-29 21:15:00,
2013-04-29 17:30:00,62.8,38.1,29.81,SW,232,6.0,6.0,40,0.00,,,0.00,Wunderground v.1.15,2013-04-29 21:30:00,
2013-04-29 17:35:00,62.8,38.1,29.81,SSW,197,6.0,6.0,40,0.00,,,0.00,Wunderground v.1.15,2013-04-29 21:35:00,
2013-04-29 17:55:00,62.4,38.4,29.81,SSW,196,6.0,6.0,41,0.00,,,0.00,Wunderground v.1.15,2013-04-29 21:55:00,
2013-04-29 18:05:00,62.2,37.6,29.81,SSW,203,6.0,6.0,40,0.00,,,0.00,Wunderground v.1.15,2013-04-29 22:05:00,
2013-04-29 18:10:00,62.2,38.2,29.81,SSW,213,5.0,6.0,41,0.00,,,0.00,Wunderground v.1.15,2013-04-29 22:10:00,
2013-04-29 18:20:00,61.9,38.5,29.82,SSW,200,6.0,6.0,42,0.00,,,0.00,Wunderground v.1.15,2013-04-29 22:20:00,
2013-04-29 18:25:00,61.7,37.7,29.82,SSW,195,5.0,6.0,41,0.00,,,0.00,Wunderground v.1.15,2013-04-29 22:25:00,
2013-04-29 18:30:00,61.6,37.0,29.82,SSW,192,5.0,7.0,40,0.00,,,0.00,Wunderground v.1.15,2013-04-29 22:30:00,
2013-04-29 18:35:00,61.5,38.2,29.82,SSW,198,5.0,7.0,42,0.00,,,0.00,Wunderground v.1.15,2013-04-29 22:35:00,
2013-04-29 18:45:00,61.3,38.0,29.82,WSW,246,5.0,6.0,42,0.00,,,0.00,Wunderground v.1.15,2013-04-29 22:45:00,
2013-04-29 18:50:00,61.3,36.8,29.82,SW,227,6.0,6.0,40,0.00,,,0.00,Wunderground v.1.15,2013-04-29 22:50:00,
2013-04-29 19:05:00,60.8,37.5,29.82,SSW,194,3.0,3.0,42,0.00,,,0.00,Wunderground v.1.15,2013-04-29 23:05:00,
2013-04-29 19:15:00,60.4,37.8,29.82,WSW,249,4.0,4.0,43,0.00,,,0.00,Wunderground v.1.15,2013-04-29 23:15:00,
2013-04-29 19:30:00,60.1,38.1,29.83,South,178,4.0,5.0,44,0.00,,,0.00,Wunderground v.1.15,2013-04-29 23:30:00,
2013-04-29 19:35:00,60.0,38.0,29.83,SSW,209,4.0,5.0,44,0.00,,,0.00,Wunderground v.1.15,2013-04-29 23:35:00,
2013-04-29 19:40:00,59.8,39.0,29.83,SSW,213,3.0,3.0,46,0.00,,,0.00,Wunderground v.1.15,2013-04-29 23:40:00,
2013-04-29 19:45:00,59.4,38.6,29.83,SSW,200,3.0,3.0,46,0.00,,,0.00,Wunderground v.1.15,2013-04-29 23:45:00,
2013-04-29 19:50:00,59.2,38.4,29.83,SSW,209,3.0,3.0,46,0.00,,,0.00,Wunderground v.1.15,2013-04-29 23:50:00,
2013-04-29 19:55:00,59.0,38.2,29.83,SSW,212,2.0,3.0,46,0.00,,,0.00,Wunderground v.1.15,2013-04-29 23:55:00,
2013-04-29 20:00:00,58.8,38.1,29.83,SSW,211,2.0,2.0,46,0.00,,,0.00,Wunderground v.1.15,2013-04-30 00:00:00,
2013-04-29 20:05:00,58.6,39.0,29.83,SSW,194,2.0,2.0,48,0.00,,,0.00,Wunderground v.1.15,2013-04-30 00:05:00,
2013-04-29 20:15:00,58.5,37.8,29.83,SSW,194,3.0,3.0,46,0.00,,,0.00,Wunderground v.1.15,2013-04-30 00:15:00,
2013-04-29 20:20:00,58.4,38.2,29.84,SW,221,3.0,4.0,47,0.00,,,0.00,Wunderground v.1.15,2013-04-30 00:20:00,
2013-04-29 20:45:00,58.1,38.5,29.85,South,188,3.0,3.0,48,0.00,,,0.00,Wunderground v.1.15,2013-04-30 00:45:00,
2013-04-29 20:55:00,58.0,38.9,29.85,South,178,2.0,2.0,49,0.00,,,0.00,Wunderground v.1.15,2013-04-30 00:55:00,
2013-04-29 21:05:00,57.7,39.2,29.85,SSW,202,2.0,3.0,50,0.00,,,0.00,Wunderground v.1.15,2013-04-30 01:05:00,
2013-04-29 21:15:00,57.0,39.0,29.85,South,191,2.0,3.0,51,0.00,,,0.00,Wunderground v.1.15,2013-04-30 01:15:00,
2013-04-29 21:25:00,56.4,39.0,29.86,SSW,213,3.0,4.0,52,0.00,,,0.00,Wunderground v.1.15,2013-04-30 01:25:00,
2013-04-29 21:30:00,56.7,38.8,29.86,SW,215,3.0,5.0,51,0.00,,,0.00,Wunderground v.1.15,2013-04-30 01:30:00,
2013-04-29 21:35:00,56.8,38.9,29.86,South,189,3.0,5.0,51,0.00,,,0.00,Wunderground v.1.15,2013-04-30 01:35:00,
2013-04-29 21:45:00,56.7,39.3,29.86,South,184,3.0,3.0,52,0.00,,,0.00,Wunderground v.1.15,2013-04-30 01:45:00,
2013-04-29 21:50:00,56.4,39.0,29.86,South,186,3.0,4.0,52,0.00,,,0.00,Wunderground v.1.15,2013-04-30 01:50:00,
2013-04-29 22:05:00,55.6,39.2,29.86,South,188,2.0,2.0,54,0.00,,,0.00,Wunderground v.1.15,2013-04-30 02:05:00,
2013-04-29 22:15:00,55.0,38.6,29.86,South,185,3.0,4.0,54,0.00,,,0.00,Wunderground v.1.15,2013-04-30 02:15:00,
2013-04-29 22:21:00,54.8,39.4,29.86,South,181,4.0,5.0,56,0.00,,,0.00,Wunderground v.1.15,2013-04-30 02:21:00,
2013-04-29 22:25:00,54.4,39.5,29.86,South,184,4.0,6.0,57,0.00,,,0.00,Wunderground v.1.15,2013-04-30 02:25:00,
2013-04-29 22:40:00,54.3,38.9,29.86,South,190,5.0,5.0,56,0.00,,,0.00,Wunderground v.1.15,2013-04-30 02:40:00,
2013-04-29 22:45:00,54.0,39.1,29.87,South,184,3.0,5.0,57,0.00,,,0.00,Wunderground v.1.15,2013-04-30 02:45:00,
2013-04-29 23:00:00,53.1,39.1,29.87,South,175,2.0,2.0,59,0.00,,,0.00,Wunderground v.1.15,2013-04-30 03:00:00,
2013-04-29 23:05:00,52.8,39.3,29.87,SE,146,1.0,2.0,60,0.00,,,0.00,Wunderground v.1.15,2013-04-30 03:05:00,
2013-04-29 23:10:00,52.7,38.8,29.87,South,180,2.0,2.0,59,0.00,,,0.00,Wunderground v.1.15,2013-04-30 03:10:00,
2013-04-29 23:15:00,52.9,39.4,29.87,SW,225,3.0,3.0,60,0.00,,,0.00,Wunderground v.1.15,2013-04-30 03:15:00,
2013-04-29 23:26:00,52.9,38.5,29.88,SSW,192,3.0,3.0,58,0.00,,,0.00,Wunderground v.1.15,2013-04-30 03:26:00,
2013-04-29 23:45:00,52.6,38.7,29.88,South,184,2.0,2.0,59,0.00,,,0.00,Wunderground v.1.15,2013-04-30 03:45:00,
2013-04-29 23:55:00,52.5,38.6,29.88,SSW,198,1.0,3.0,59,0.00,,,0.00,Wunderground v.1.15,2013-04-30 03:55:00,